Normandy Observed Data For Previous 48 Hours

Caption
Day and Hour Reservoir Elevation (behind dam)* Tailwater Elevation (below dam)* Average Hourly Discharge*
1/16/2019 1 AM CST 865.67 792.05 805
1/16/2019 2 AM CST 865.66 792.05 805
1/16/2019 3 AM CST 865.65 792.04 805
1/16/2019 4 AM CST 865.63 792.04 805
1/16/2019 5 AM CST 865.62 792.04 805
1/16/2019 6 AM CST 865.61 792.04 805
1/16/2019 7 AM CST 865.59 792.03 796
1/16/2019 8 AM CST 865.57 792.02 795
1/16/2019 9 AM CST 865.56 791.94 795
1/16/2019 10 AM CST 865.55 791.45 720
1/16/2019 11 AM CST 865.54 791.41 590
1/16/2019 12 PM CST 865.54 791.40 590
1/16/2019 1 PM CST 865.53 791.40 590
1/16/2019 2 PM CST 865.52 791.39 590
1/16/2019 3 PM CST 865.50 791.39 590
1/16/2019 4 PM CST 865.49 791.39 581
1/16/2019 5 PM CST 865.49 791.38 580
1/16/2019 6 PM CST 865.48 791.38 580
1/16/2019 7 PM CST 865.47 791.38 580
1/16/2019 8 PM CST 865.46 791.37 580
1/16/2019 9 PM CST 865.46 791.38 580
1/16/2019 10 PM CST 865.44 791.37 580
1/16/2019 11 PM CST 865.44 791.37 580
1/17/2019 12 AM CST 865.43 791.36 580
1/17/2019 1 AM CST 865.42 791.36 580
1/17/2019 2 AM CST 865.41 791.36 580
1/17/2019 3 AM CST 865.40 791.36 580
1/17/2019 4 AM CST 865.39 791.36 579
1/17/2019 5 AM CST 865.38 791.36 570
1/17/2019 6 AM CST 865.37 791.35 570
1/17/2019 7 AM CST 865.36 791.34 570
1/17/2019 8 AM CST 865.36 791.35 570
1/17/2019 9 AM CST 865.37 791.35 570
1/17/2019 10 AM CST 865.37 791.35 570
1/17/2019 11 AM CST 865.35 791.36 570
1/17/2019 12 PM CST 865.35 791.35 570
1/17/2019 1 PM CST 865.35 791.36 570
1/17/2019 2 PM CST 865.35 791.35 570
1/17/2019 3 PM CST 865.34 791.35 570
1/17/2019 4 PM CST 865.32 791.35 570
1/17/2019 5 PM CST 865.31 791.35 570
1/17/2019 6 PM CST 865.32 791.33 570
1/17/2019 7 PM CST 865.31 791.33 570
1/17/2019 8 PM CST 865.30 791.33 570
1/17/2019 9 PM CST 865.28 791.33 569
1/17/2019 10 PM CST 865.28 791.33 560

Elevations are in feet above sea level. Discharges are in cubic feet per second and are reported at the end of the hour.